Location: Buchloe
(48.0161°N, 10.7316°E)
Time: 02:45:04
(UTC+01:00)

ISS - Visible Passes

Search period start: 02 December 2021 00:00
Search period end: 12 December 2021 00:00
Orbit: 417 x 423 km, 51.6° (Epoch: 01 December)

Date Brightness Start Highest point End Pass type
(mag) Time Alt. Az. Time Alt. Az. Time Alt. Az.
02 Dec -3.6 17:57:47 10° WNW 18:01:08 58° NNE 18:02:16 36° ENE visible
02 Dec -0.5 19:34:42 10° WNW 19:35:15 14° W 19:35:15 14° W visible
03 Dec -3.4 17:10:32 10° WNW 17:13:52 49° N 17:17:10 10° E visible
03 Dec -2.8 18:47:26 10° WNW 18:50:10 48° WSW 18:50:10 48° WSW visible
04 Dec -3.7 18:00:12 10° WNW 18:03:36 83° SSW 18:05:13 29° ESE visible
04 Dec -0.4 19:37:43 10° W 19:38:14 12° WSW 19:38:14 12° WSW visible
05 Dec -3.8 17:12:58 10° WNW 17:16:23 74° NNE 17:19:46 10° ESE visible
05 Dec -1.8 18:50:06 10° W 18:52:58 26° SW 18:53:27 25° SSW visible
06 Dec -2.4 18:02:41 10° WNW 18:05:52 38° SW 18:08:55 11° SE visible
07 Dec -3.0 17:15:22 10° WNW 17:18:43 56° SSW 17:22:02 10° SE visible
07 Dec -0.5 18:54:01 10° WSW 18:54:56 11° SW 18:55:50 10° SSW visible
08 Dec -0.8 18:05:39 10° W 18:07:55 17° SW 18:10:10 10° S visible
09 Dec -1.2 17:17:59 10° W 17:20:49 25° SW 17:23:40 10° SSE visible
11 Dec 0.0 17:21:57 10° WSW 17:22:43 11° SW 17:23:28 10° SW visible
